Regional Weather Roundup
Issued by NWS

Home | Current Version | Previous Version | Text Only | Print | Product List | Glossary On
Versions: 1 2 3 4 5 6 7 8 9 10 11 12 13 14 15 16 17 18 19 20 21 22 23 24 25 26 27 28 29 30 31 32 33 34 35 36 37 38 39 40 41 42 43 44 45 46 47 48 49 50
000
ASUS43 KFSD 010910
RWRSD

WEATHER ROUNDUP FOR SOUTH DAKOTA
NATIONAL WEATHER SERVICE SIOUX FALLS SD
400 AM CDT WED JUL 01 2015

NOTE: "FAIR" INDICATES FEW OR NO CLOUDS BELOW 12,000 FEET WITH NO
SIGNIFICANT WEATHER AND/OR OBSTRUCTIONS TO VISIBILITY.


SDZ001>005-009-010-012>017-011000-
NORTHWEST AND NORTH CENTRAL SOUTH DAKOTA

CITY           SKY/WX    TMP DP  RH WIND       PRES   REMARKS
BUFFALO          N/A     60  58  92 W6        29.86R
FAITH            N/A     59  57  93 E7        29.88F
MOBRIDGE       MOCLDY    65  64  97 E13       29.84F
$$

SDZ012>016-024>037-041>051-057-063-072>074-011000-
SOUTHWEST AND SOUTH CENTRAL SOUTH DAKOTA

CITY           SKY/WX    TMP DP  RH WIND       PRES   REMARKS
RAPID CTY ARPT CLEAR     64  63  96 NW3       29.92S
PIERRE         CLEAR     63  62  97 E3        29.84S
CUSTER         CLEAR     59  56  89 NW5       30.10S
ELLSWORTH AFB  MOCLDY    66  65  99 NW6       29.92R
PHILIP         CLEAR     66  63  90 CALM      29.86R
PINE RIDGE     MOCLDY    68  60  75 S6        29.93F
SPEARFISH      MOCLDY    64  57  77 W7        30.00R
WINNER         FAIR      68  60  75 S14       29.84F
$$

SDZ004>011-016>023-039-040-011000-
NORTHEAST SOUTH DAKOTA

CITY           SKY/WX    TMP DP  RH WIND       PRES   REMARKS
ABERDEEN       CLOUDY    65  64  97 E6        29.89F FOG
WATERTOWN      CLOUDY    65  60  84 VRB3      29.92S
BROOKINGS      CLOUDY    64  57  77 SE3       29.95R
SISSETON         N/A     61  61 100 W5        29.93S
$$

SDZ017-020-022-023-036>040-048>070-011000-
SOUTHEAST SOUTH DAKOTA

CITY           SKY/WX    TMP DP  RH WIND       PRES   REMARKS
SIOUX FALLS    CLOUDY    65  62  90 SE7       29.88S
HURON          CLOUDY    66  66 100 NE6       29.88R FOG
CHAMBERLAIN    PTCLDY    64  63  97 SE7       29.85F
MITCHELL       CLOUDY    65  65 100 NE6       29.87F FOG
YANKTON        CLOUDY    64  63  94 E6        29.85S
$$

ABBREVIATIONS USED IN REMARKS
   TC - TEMPERATURE IN CELSIUS
  WCI - WIND CHILL INDEX
   HX - HEAT INDEX
  VSB - VISIBILITY



USA.gov is the U.S. government's official web portal to all federal, state and local government web resources and services.